Weather History for Brownwood, TX

Change the Weather History Date:

Wednesday, May 8, 2013

  Actual Average (KABI) Record (KABI)
Temperature  
Mean Temperature 68 °F 71 °F  
Max Temperature 78 °F 83 °F 103 °F (2009)
Min Temperature 57 °F 59 °F 39 °F (1917)
Degree Days  
Heating Degree Days 0 1  
Month to date heating degree days 8  
Since 1 July heating degree days 2550  
Cooling Degree Days 2 7  
Month to date cooling degree days 49  
Year to date cooling degree days 182  
Growing Degree Days 18 (Base 50)    
Moisture  
Dew Point 57 °F    
Average Humidity 65    
Maximum Humidity 83    
Minimum Humidity 52    
Precipitation  
Precipitation 0.00 in 0.09 in 1.68 in (1892)
Month to date precipitation 0.69  
Year to date precipitation 6.45  
Sea Level Pressure  
Sea Level Pressure 29.95 in    
Wind  
Wind Speed 8 mph (SSE)    
Max Wind Speed 17 mph    
Max Gust Speed 24 mph    
Visibility 10 miles    
Events      
T = Trace of Precipitation, MM = Missing Value Source: NWS Daily Summary

Daily Weather History Graph

Daily Weather History Graph

Search for Another Location

Airport:

Trip Planner

Search our weather history database for the weather conditions in past years. The results will help you decide how hot, cold, wet, or windy it might be!

Date:

Astronomy

May. 08, 2013 Rise Set
Actual Time 6:43 AM CDT 8:21 PM CDT
Civil Twilight 6:17 AM CDT 8:47 PM CDT
Nautical Twilight 5:45 AM CDT 9:19 PM CDT
Astronomical Twilight 5:12 AM CDT 9:52 PM CDT
Moon 5:48 AM CDT (5/8) 7:23 PM CDT (5/8)
Length of Visible Light 14h 30m
Length of Day
13h 37m
Waning Crescent, 2% of the Moon is Illuminated
May 8
Waning Crescent
May 9
New
May 17
First Quarter
May 24
Full
May 31
Last Quarter

Hourly Weather History & Observations

Time (CDT) Temp. Dew Point Humidity Pressure Visibility Wind Dir Wind Speed Gust Speed Precip Events Conditions
12:15 AM 64.4 °F 46.4 °F 52% 29.96 in 10.0 mi SE 6.9 mph - N/A   Clear
12:35 AM 64.4 °F 46.4 °F 52% 29.96 in 10.0 mi SE 4.6 mph - N/A   Partly Cloudy
12:55 AM 64.4 °F 46.4 °F 52% 29.96 in 10.0 mi SE 5.8 mph - N/A   Partly Cloudy
1:15 AM 64.4 °F 46.4 °F 52% 29.95 in 10.0 mi Calm Calm - N/A   Scattered Clouds
1:35 AM 64.4 °F 46.4 °F 52% 29.95 in 10.0 mi Calm Calm - N/A   Mostly Cloudy
1:55 AM 64.4 °F 48.2 °F 56% 29.96 in 10.0 mi NNE 3.5 mph - N/A   Scattered Clouds
2:15 AM 64.4 °F 48.2 °F 56% 29.97 in 10.0 mi Calm Calm - N/A   Scattered Clouds
2:35 AM 59.0 °F 48.2 °F 67% 29.97 in 10.0 mi Calm Calm - N/A   Scattered Clouds
2:55 AM 59.0 °F 48.2 °F 67% 29.97 in 10.0 mi Calm Calm - N/A   Scattered Clouds
3:15 AM 57.2 °F 48.2 °F 72% 29.97 in 10.0 mi ESE 4.6 mph - N/A   Mostly Cloudy
3:35 AM 59.0 °F 48.2 °F 67% 29.96 in 10.0 mi South 3.5 mph - N/A   Mostly Cloudy
3:55 AM 60.8 °F 48.2 °F 63% 29.95 in 10.0 mi Calm Calm - N/A   Scattered Clouds
4:15 AM 59.0 °F 48.2 °F 67% 29.95 in 10.0 mi SE 5.8 mph - N/A   Mostly Cloudy
4:35 AM 59.0 °F 48.2 °F 67% 29.95 in 10.0 mi SE 6.9 mph - N/A   Mostly Cloudy
4:55 AM 60.8 °F 50.0 °F 68% 29.95 in 10.0 mi SE 4.6 mph - N/A   Overcast
5:15 AM 60.8 °F 50.0 °F 68% 29.94 in 10.0 mi SE 4.6 mph - N/A   Overcast
5:35 AM 60.8 °F 50.0 °F 68% 29.95 in 10.0 mi South 4.6 mph - N/A   Overcast
5:55 AM 59.0 °F 51.8 °F 77% 29.95 in 10.0 mi SE 5.8 mph - N/A   Overcast
6:15 AM 60.8 °F 53.6 °F 77% 29.95 in 10.0 mi SSE 4.6 mph - N/A   Overcast
6:35 AM 59.0 °F 53.6 °F 82% 29.95 in 10.0 mi ESE 4.6 mph - N/A   Mostly Cloudy
6:55 AM 59.0 °F 53.6 °F 82% 29.96 in 10.0 mi SSE 5.8 mph - N/A   Clear
7:15 AM 60.8 °F 53.6 °F 77% 29.96 in 10.0 mi SE 6.9 mph - N/A   Clear
7:35 AM 62.6 °F 55.4 °F 77% 29.97 in 10.0 mi SSE 6.9 mph - N/A   Clear
7:55 AM 64.4 °F 55.4 °F 73% 29.98 in 10.0 mi South 10.4 mph 16.1 mph N/A   Clear
8:15 AM 64.4 °F 55.4 °F 73% 29.98 in 10.0 mi South 10.4 mph - N/A   Clear
8:35 AM 66.2 °F 57.2 °F 73% 29.98 in 10.0 mi SSW 10.4 mph - N/A   Clear
8:55 AM 68.0 °F 57.2 °F 68% 29.98 in 10.0 mi South 15.0 mph - N/A   Clear
9:15 AM 69.8 °F 59.0 °F 68% 29.98 in 10.0 mi South 13.8 mph - N/A   Clear
9:35 AM 73.4 °F 59.0 °F 61% 29.98 in 10.0 mi South 15.0 mph 23.0 mph N/A   Clear
9:55 AM 73.4 °F 59.0 °F 61% 29.98 in 10.0 mi South 12.7 mph 19.6 mph N/A   Clear
10:15 AM 75.2 °F 59.0 °F 57% 29.98 in 10.0 mi South 13.8 mph 19.6 mph N/A   Clear
10:35 AM 75.2 °F 60.8 °F 61% 29.98 in 10.0 mi SSE 16.1 mph 20.7 mph N/A   Partly Cloudy
10:55 AM 78.8 °F 60.8 °F 54% 29.99 in 10.0 mi South 15.0 mph 21.9 mph N/A   Mostly Cloudy
11:15 AM 77.0 °F 60.8 °F 57% 29.98 in 10.0 mi SSE 13.8 mph 19.6 mph N/A   Overcast
11:35 AM 77.0 °F 60.8 °F 57% 29.98 in 10.0 mi South 15.0 mph - N/A   Overcast
11:55 AM 77.0 °F 60.8 °F 57% 29.98 in 10.0 mi SSE 15.0 mph 23.0 mph N/A   Overcast
12:15 PM 75.2 °F 60.8 °F 61% 29.99 in 10.0 mi SSE 13.8 mph 19.6 mph N/A   Overcast
12:35 PM 77.0 °F 60.8 °F 57% 29.98 in 10.0 mi South 15.0 mph 19.6 mph N/A   Overcast
12:55 PM 77.0 °F 60.8 °F 57% 29.98 in 10.0 mi South 17.3 mph 20.7 mph N/A   Overcast
1:15 PM 75.2 °F 60.8 °F 61% 29.98 in 10.0 mi South 13.8 mph - N/A   Overcast
1:35 PM 75.2 °F 60.8 °F 61% 29.98 in 10.0 mi South 11.5 mph 24.2 mph N/A   Overcast
1:55 PM 75.2 °F 60.8 °F 61% 29.98 in 10.0 mi South 12.7 mph 18.4 mph N/A   Overcast
2:15 PM 75.2 °F 60.8 °F 61% 29.97 in 10.0 mi South 12.7 mph 19.6 mph N/A   Overcast
2:35 PM 75.2 °F 60.8 °F 61% 29.97 in 10.0 mi South 15.0 mph - N/A   Overcast
2:55 PM 75.2 °F 60.8 °F 61% 29.97 in 10.0 mi South 16.1 mph 21.9 mph N/A   Overcast
3:15 PM 75.2 °F 60.8 °F 61% 29.96 in 10.0 mi SSE 13.8 mph 18.4 mph N/A   Overcast
3:35 PM 77.0 °F 62.6 °F 61% 29.95 in 10.0 mi South 16.1 mph - N/A   Overcast
3:55 PM 75.2 °F 62.6 °F 65% 29.94 in 10.0 mi South 12.7 mph 17.3 mph N/A   Overcast
4:15 PM 75.2 °F 60.8 °F 61% 29.94 in 10.0 mi SSE 13.8 mph 19.6 mph N/A   Overcast
4:35 PM 77.0 °F 62.6 °F 61% 29.94 in 10.0 mi South 10.4 mph - N/A   Overcast
4:55 PM 75.2 °F 62.6 °F 65% 29.94 in 10.0 mi South 16.1 mph 21.9 mph N/A   Overcast
5:15 PM 77.0 °F 62.6 °F 61% 29.92 in 10.0 mi South 15.0 mph - N/A   Overcast
5:35 PM 77.0 °F 62.6 °F 61% 29.92 in 10.0 mi South 13.8 mph 19.6 mph N/A   Overcast
5:55 PM 77.0 °F 62.6 °F 61% 29.91 in 10.0 mi South 15.0 mph 21.9 mph N/A   Overcast
6:15 PM 75.2 °F 62.6 °F 65% 29.89 in 10.0 mi SSE 13.8 mph 21.9 mph N/A   Overcast
6:35 PM 75.2 °F 62.6 °F 65% 29.89 in 10.0 mi South 13.8 mph 20.7 mph N/A   Overcast
6:55 PM 75.2 °F 62.6 °F 65% 29.88 in 10.0 mi SSE 16.1 mph 20.7 mph N/A   Overcast
7:15 PM 75.2 °F 62.6 °F 65% 29.89 in 10.0 mi SSE 17.3 mph 21.9 mph N/A   Overcast
7:35 PM 75.2 °F 62.6 °F 65% 29.90 in 10.0 mi SSE 11.5 mph 17.3 mph N/A   Overcast
7:55 PM 75.2 °F 62.6 °F 65% 29.90 in 10.0 mi South 6.9 mph - N/A   Overcast
8:15 PM 75.2 °F 62.6 °F 65% 29.90 in 10.0 mi SSE 10.4 mph - N/A   Overcast
8:35 PM 73.4 °F 62.6 °F 69% 29.90 in 10.0 mi SSE 10.4 mph - N/A   Mostly Cloudy
8:55 PM 73.4 °F 62.6 °F 69% 29.91 in 10.0 mi SSE 9.2 mph - N/A   Partly Cloudy
9:15 PM 71.6 °F 62.6 °F 73% 29.91 in 10.0 mi SE 9.2 mph - N/A   Partly Cloudy
9:35 PM 71.6 °F 62.6 °F 73% 29.91 in 10.0 mi SE 6.9 mph - N/A   Partly Cloudy
9:55 PM 69.8 °F 62.6 °F 78% 29.91 in 10.0 mi SSE 4.6 mph - N/A   Scattered Clouds
10:15 PM 69.8 °F 60.8 °F 73% 29.91 in 10.0 mi South 5.8 mph - N/A   Scattered Clouds
10:35 PM 68.0 °F 60.8 °F 78% 29.91 in 10.0 mi SSE 6.9 mph - N/A   Mostly Cloudy
10:55 PM 68.0 °F 62.6 °F 83% 29.91 in 10.0 mi SSE 6.9 mph - N/A   Mostly Cloudy
11:15 PM 66.2 °F 60.8 °F 83% 29.90 in 10.0 mi South 4.6 mph - N/A   Mostly Cloudy